Location: Newark
(46.7000°N, 60.6000°W)
Time: 09:45:39
(UTC+00:00)

Transit 2A Rocket - Pass Details

Date: 02 November 2020
Orbit: 588 x 915 km, 66.7° (Epoch: 23 November)

Event Time Altitude Azimuth Distance (km) Brightness Sun altitude
Rises 13:57:15 0° 246° (WSW) 3,539 8.4 23.6°
Reaches altitude 10° 14:00:06 10° 257° (WSW) 2,586 7.7 23.9°
Maximum altitude 14:05:24 31° 318° (NW) 1,504 6.2 24.3°
Drops below altitude 10° 14:10:29 10° 20° (NNE) 2,471 7.3 24.7°
Sets 14:13:10 0° 31° (NNE) 3,358 8.0 24.9°
